Theta_e
302 300 300 299 300 302 302 302 302 301 299 300 299 298 299 299 298 297 297 297 299 298 297 296 295 294 294 294 293 292 292 292 291 292 293 294 295 295 296 296 296 296 296 296
300 301 301 302 302 302 301 302 302 300 299 298 298 297 298 296 296 297 296 297 298 297 296 295 294 294 293 292 291 291 290 289 289 289 290 291 293 295 295 296 296 296 297 300
300 302 302 302 302 302 301 301 301 300 298 296 296 296 296 297 296 296 296 296 297 296 295 294 294 292 291 290 290 289 288 288 288 288 289 289 290 292 294 295 295 295 296 299
300 301 301 302 302 301 301 300 299 299 297 298 297 298 298 297 296 295 295 294 295 295 294 293 292 292 290 288 287 286 286 287 287 287 287 287 289 291 292 293 295 295 296 298
299 301 301 301 301 300 299 298 298 298 295 292 297 292 297 295 298 297 294 294 294 293 292 292 292 290 288 286 286 285 285 285 286 286 286 287 288 289 291 292 293 294 296 298
299 300 300 299 299 299 298 300 298 296 295 295 294 295 300 296 293 296 292 293 293 292 292 292 290 287 286 286 285 285 285 285 285 285 286 286 287 288 289 290 292 293 295 297
303 301 298 298 300 298 299 300 300 297 294 300 294 296 299 293 290 288 288 293 292 292 291 289 287 286 286 285 285 284 284 285 285 285 285 286 287 287 288 289 290 292 294 296
302 304 299 298 300 301 300 298 301 296 297 296 296 295 298 289 289 289 292 292 291 291 289 287 286 285 284 284 284 284 284 284 285 285 286 286 286 287 288 288 289 291 294 296
302 303 297 297 296 297 300 302 295 289 286 293 291 294 295 294 288 287 290 291 291 290 288 286 285 284 283 283 284 283 283 284 284 284 285 286 286 287 288 289 290 292 294 296
301 302 299 297 296 295 297 296 296 293 296 294 295 291 294 291 289 286 285 291 291 289 287 285 284 283 282 283 283 283 282 283 284 284 285 286 287 287 288 289 290 293 294 295
298 299 301 298 296 298 296 296 296 294 290 291 292 296 288 289 285 287 287 290 288 288 285 284 283 282 282 283 283 283 282 283 284 284 285 286 286 287 288 289 291 293 294 295
299 300 301 303 295 293 294 290 291 293 291 284 288 296 281 282 277 281 287 289 287 286 284 283 282 282 282 283 283 283 282 283 283 284 284 286 286 287 288 289 291 294 295 295
299 301 302 303 298 294 294 292 289 287 287 290 293 297 279 274 281 289 287 289 287 285 283 282 282 283 283 283 283 282 283 283 283 283 284 285 286 287 288 290 292 293 295 296
298 299 301 305 303 294 291 289 291 292 287 285 291 293 298 292 285 289 290 288 287 285 284 283 283 283 283 282 283 283 283 283 283 283 284 284 285 287 288 288 288 289 292 294
298 299 299 299 300 296 292 293 291 292 287 295 288 287 293 291 288 289 290 289 288 286 284 284 283 283 283 283 284 284 284 284 284 283 283 284 284 285 286 287 287 287 290 292
296 298 298 298 296 288 289 288 290 293 283 286 289 294 293 289 287 289 291 291 290 289 287 285 285 284 284 285 285 286 285 284 284 284 284 284 285 285 286 286 286 286 287 289
297 296 298 300 294 294 294 289 285 283 279 290 290 292 271 284 279 289 293 292 293 291 289 288 286 286 286 286 286 286 286 286 285 285 286 286 286 286 287 287 287 287 287 288
295 295 298 298 296 297 294 274 279 285 282 284 284 285 280 285 291 292 294 294 294 293 291 290 288 287 288 288 288 288 287 287 287 287 287 287 287 287 288 288 289 289 288 287
294 295 295 297 295 296 294 286 284 287 291 280 285 288 288 289 290 295 299 298 296 294 292 291 289 289 289 289 287 283 283 284 283 283 285 285 287 285 285 286 287 288 287 288
295 294 297 295 296 295 295 287 285 281 293 282 282 281 277 289 289 289 298 298 297 295 294 293 291 290 290 290 288 287 287 286 283 283 283 285 283 283 283 285 284 284 284 284
290 292 295 296 297 294 291 289 289 292 293 292 292 294 291 287 293 296 297 298 296 295 294 293 293 292 291 291 287 285 284 284 283 283 283 284 284 284 284 284 284 284 284 285
292 293 293 294 295 296 291 292 296 296 297 297 295 295 295 296 297 296 296 297 297 296 294 294 293 293 291 288 285 285 285 284 284 284 284 284 283 284 284 284 285 285 286 286
297 294 294 296 299 295 296 296 299 299 298 297 297 297 296 296 298 298 297 296 297 296 295 294 294 292 288 286 286 286 285 285 284 284 284 284 284 284 284 284 285 285 285 285
292 295 295 297 299 297 300 299 299 298 298 298 298 298 297 298 298 299 298 297 296 296 296 295 294 293 291 289 288 287 285 285 285 285 285 284 284 284 284 284 285 285 285 285
295 295 296 297 297 298 300 298 296 296 296 297 297 297 298 297 297 298 298 297 297 296 296 296 295 294 293 290 288 287 285 285 286 286 285 285 285 285 285 285 284 285 284 284
293 294 297 297 295 295 294 294 295 295 295 295 295 297 299 297 296 296 298 298 296 296 296 295 296 295 294 291 289 288 286 286 286 286 286 286 286 286 285 285 285 285 285 285
Wind_Speed
0 1 7 9 7 0 1 3 5 2 2 2 9 12 21 18 17 18 25 27 28 26 22 23 23 24 25 26 29 31 33 33 30 27 26 27 27 27 28 28 30 26 23 24
2 8 5 5 4 4 3 3 5 4 3 2 6 15 22 9 5 5 10 17 21 23 23 24 23 23 25 28 29 31 32 29 26 24 22 23 26 27 27 26 26 23 17 17
6 1 3 3 2 3 4 4 2 4 5 1 7 8 5 3 3 5 6 7 11 16 19 19 20 23 26 27 29 30 28 26 25 24 24 23 23 24 26 27 26 24 20 18
6 3 4 2 4 6 2 2 3 0 4 3 4 6 7 3 6 4 7 5 10 14 16 16 19 24 26 26 24 26 26 26 25 23 23 23 24 25 23 25 25 22 16 19
5 2 3 3 4 4 5 1 3 3 3 4 1 2 8 5 6 4 6 12 14 14 14 17 22 25 22 22 24 26 26 25 23 22 22 23 25 24 24 24 22 16 17 18
7 3 1 3 2 3 5 3 4 4 3 2 2 3 6 3 5 3 1 10 14 12 14 19 21 19 21 23 24 25 25 22 20 21 21 22 23 23 22 21 20 16 20 20
2 2 2 5 1 3 4 3 3 4 2 5 2 1 10 6 5 5 5 8 9 11 17 19 17 19 22 22 23 23 22 22 20 21 21 20 21 22 21 20 18 18 17 20
1 4 3 2 2 3 4 4 4 6 2 4 1 6 6 6 4 5 7 9 12 15 16 16 17 19 20 21 21 21 20 21 19 20 20 19 19 20 19 18 17 15 15 16
2 4 2 3 1 2 1 3 2 6 1 3 2 7 9 3 4 5 11 10 16 16 15 16 17 17 19 19 18 19 19 19 19 19 18 16 17 16 15 15 14 11 13 17
1 5 2 1 1 3 2 2 2 2 0 4 4 5 5 5 4 4 6 13 15 14 13 14 15 16 16 16 17 16 17 18 18 16 15 14 13 12 11 10 9 10 12 15
3 2 1 1 3 3 2 2 2 3 3 4 2 7 7 7 6 6 8 17 15 13 13 13 13 14 15 15 15 15 15 15 13 13 12 11 9 8 7 7 7 9 9 10
2 3 4 4 3 2 2 4 3 4 4 1 3 7 3 5 4 4 19 20 13 12 12 13 13 12 12 13 12 12 13 12 12 12 10 9 7 5 5 5 5 6 7 7
2 3 3 2 2 1 3 3 3 4 3 5 4 6 1 3 6 13 18 13 11 10 11 11 11 11 11 10 10 10 11 11 11 11 9 7 6 5 4 3 3 5 5 6
2 3 5 2 1 2 1 2 3 4 3 4 7 10 15 9 7 11 13 11 11 11 10 9 8 8 8 8 8 8 9 10 11 10 8 6 5 4 5 5 2 2 3 6
2 4 4 8 10 5 6 8 8 9 6 7 4 7 13 12 9 11 15 13 12 11 9 8 6 5 5 5 7 7 9 10 11 11 8 8 7 6 5 4 3 2 1 2
2 3 2 5 3 2 6 8 11 14 3 10 10 23 14 12 9 11 13 13 13 11 8 6 3 1 2 4 6 6 7 8 9 10 11 11 9 9 9 7 6 6 7 7
2 2 3 4 1 6 6 7 7 4 3 8 6 11 3 5 5 9 12 11 12 10 7 5 3 3 4 4 4 5 6 8 9 10 13 13 13 13 13 13 13 14 15 14
1 0 1 4 6 1 4 0 2 4 6 11 9 8 8 13 22 29 24 18 11 9 7 6 6 6 6 7 7 8 9 10 11 13 14 15 14 14 15 14 15 18 20 20
6 1 2 2 2 7 3 3 5 5 5 7 8 12 14 16 15 16 3 8 8 8 7 7 8 8 9 9 10 9 8 8 9 9 11 13 13 13 12 13 15 16 14 15
2 1 1 1 2 2 5 4 5 3 4 4 7 6 3 4 4 4 3 5 8 10 10 9 10 12 13 13 12 10 9 6 6 7 9 10 9 8 8 8 8 9 9 9
1 1 3 3 3 7 4 4 5 5 6 4 5 9 3 3 7 14 12 9 10 11 11 12 13 14 15 16 12 9 8 7 6 6 5 5 6 6 5 5 5 6 6 6
5 5 3 2 2 5 7 1 3 6 19 24 21 20 18 23 22 20 19 12 14 15 16 16 17 18 18 16 14 12 10 9 9 8 7 6 5 5 5 4 4 4 5 5
2 4 3 6 4 4 10 14 24 26 31 25 24 22 19 22 23 23 21 20 19 19 19 19 20 20 20 19 17 15 10 11 11 10 9 9 8 8 7 7 6 5 5 5
3 3 2 2 3 7 21 19 14 22 26 30 30 30 26 29 30 29 24 21 23 24 24 23 24 26 25 23 21 17 16 15 15 14 13 13 12 11 11 10 10 10 9 8
4 4 3 5 10 20 7 27 32 41 32 28 24 29 29 29 27 21 23 23 23 26 27 28 29 29 27 25 23 20 20 21 20 18 17 17 16 15 15 15 14 14 13 14
3 4 3 4 23 10 28 36 33 26 31 34 34 36 30 26 24 23 28 24 23 25 28 32 33 33 30 28 27 24 24 25 24 23 22 20 19 18 18 18 18 18 17 18
Wind_Direction
271 64 224 218 209 36 110 217 243 242 358 299 252 271 275 281 262 261 264 262 250 246 244 244 254 267 278 285 290 296 303 307 304 298 297 291 290 287 284 285 286 282 269 263
30 239 226 227 189 213 213 253 263 277 154 248 307 289 279 279 248 253 281 263 251 246 237 241 254 270 282 289 296 299 304 306 303 297 292 290 292 290 289 286 285 282 257 271
192 215 110 169 168 187 219 206 226 238 313 172 321 289 321 287 262 263 282 267 237 235 229 241 261 280 290 296 300 302 302 301 300 297 293 292 289 287 289 289 283 281 253 263
241 270 192 206 241 165 257 112 109 275 39 266 34 282 300 315 293 235 235 219 211 220 234 256 283 295 300 299 300 301 301 300 299 296 293 293 294 292 288 287 285 282 255 264
263 176 184 188 225 159 216 109 109 99 93 32 17 67 271 6 296 273 234 225 231 236 257 282 298 302 297 298 302 303 303 303 301 297 293 293 292 289 287 284 285 271 249 265
245 316 261 225 61 104 137 83 66 56 85 352 250 134 272 219 215 293 252 226 233 245 274 294 298 294 295 299 301 302 302 302 301 297 293 291 290 290 287 284 282 265 254 248
288 196 74 25 33 42 64 56 321 338 8 224 256 5 251 263 236 222 246 236 230 268 291 298 296 294 300 303 305 306 307 306 304 298 296 290 288 287 283 281 276 269 263 254
26 302 12 72 90 310 177 172 165 219 229 278 25 237 253 217 261 248 250 251 266 284 299 293 294 302 305 307 309 310 309 309 306 302 298 292 290 285 280 275 269 270 265 262
311 270 93 66 120 261 110 217 129 103 57 35 246 281 289 256 307 293 269 282 290 296 299 297 301 303 304 307 310 309 310 311 310 306 301 299 294 286 280 271 266 259 259 257
271 287 55 77 245 104 222 160 54 10 46 301 282 279 242 307 284 307 298 304 303 301 297 296 301 303 306 310 311 311 312 313 312 309 305 305 298 289 276 266 253 242 254 263
151 213 186 206 183 165 181 267 63 113 112 169 288 273 214 214 216 249 274 310 305 303 304 302 306 307 311 314 314 316 318 315 313 310 309 308 298 292 280 265 242 237 248 257
184 237 265 238 144 175 239 201 157 122 266 91 145 272 209 224 237 253 286 312 310 306 304 302 309 312 315 315 316 321 325 327 327 324 324 316 309 301 283 273 252 230 241 243
155 225 288 211 143 170 220 193 140 115 86 205 141 261 303 294 294 286 288 311 308 306 301 304 308 312 312 323 328 338 339 343 344 344 336 329 324 314 287 262 247 245 238 255
175 246 243 258 204 111 207 221 178 134 130 188 232 288 287 298 300 319 322 317 310 303 296 303 311 313 322 338 348 356 1 5 2 358 354 355 356 352 337 335 316 278 263 250
229 257 226 262 266 225 224 222 191 203 195 205 258 227 276 287 285 295 310 313 308 304 298 298 302 310 339 3 16 21 31 27 25 19 22 25 25 30 29 19 11 22 159 214
184 277 287 274 283 191 259 221 218 226 224 275 288 286 286 287 283 291 303 304 300 301 291 277 269 339 34 54 63 61 54 47 48 46 48 49 53 55 64 67 76 91 106 122
209 282 330 268 262 283 293 226 176 193 222 187 195 233 350 300 299 289 314 311 301 291 271 243 202 140 118 105 95 81 71 72 68 70 72 73 77 79 82 86 91 99 103 107
277 104 264 288 334 341 257 255 181 173 240 229 279 270 238 262 293 294 285 280 282 269 247 208 183 165 150 134 122 105 96 91 85 84 85 85 87 89 91 96 101 100 98 99
206 230 281 295 283 295 0 251 140 172 268 199 221 270 276 291 304 304 275 248 248 241 230 199 186 174 165 159 150 140 132 116 106 98 95 92 89 88 94 99 97 98 98 97
216 170 251 8 322 262 247 289 210 123 349 208 196 270 268 15 14 268 300 238 240 228 212 200 189 183 171 165 162 157 155 155 130 125 117 106 99 97 97 93 87 91 100 105
118 208 215 219 274 287 275 289 160 60 251 311 273 307 257 198 249 301 315 256 233 231 218 202 195 187 180 182 189 192 193 178 179 175 163 152 137 127 124 121 119 120 123 133
174 162 198 139 235 289 186 135 96 273 304 309 306 304 292 305 308 299 285 268 246 234 222 211 202 195 196 203 212 211 206 204 204 203 202 202 200 192 186 182 174 170 165 167
272 194 194 204 225 243 270 263 300 309 305 313 316 323 317 312 314 314 303 267 255 244 234 227 218 213 217 218 221 223 211 222 222 223 223 222 224 225 223 219 217 222 226 224
281 184 242 357 324 266 286 304 330 338 328 324 321 319 313 305 309 307 297 282 260 249 241 234 230 227 226 226 229 230 226 232 232 232 236 242 242 242 243 244 245 243 240 247
245 156 241 264 300 324 316 332 325 319 317 322 322 323 321 319 305 311 307 286 275 259 249 242 239 238 237 234 238 236 233 238 240 240 240 243 246 249 254 259 260 261 260 263
336 347 347 296 316 307 298 309 326 326 319 315 314 312 309 314 311 306 308 304 283 269 255 248 246 243 242 240 242 240 239 243 245 246 245 246 250 253 257 259 260 264 264 266